Meteo pe oră la Allschwil

Astăzi, 24 Ianuarie, Duminică

Timp Temperatura Precipitaţii Vânt Presiune Umiditate
00:00 0°C° 0.3 mm 3 m/s 721 mmHg 96%
01:00 -1°C° 0.3 mm 4 m/s 721 mmHg 96%
02:00 -1°C° 0.3 mm 4 m/s 721 mmHg 96%
03:00 -1°C° 0.3 mm 4 m/s 721 mmHg 95%
04:00 -1°C° 0.3 mm 3 m/s 722 mmHg 94%
05:00 -1°C° 0.3 mm 3 m/s 722 mmHg 95%
06:00 -1°C° 0.3 mm 3 m/s 723 mmHg 95%
07:00 -1°C° 0.3 mm 3 m/s 724 mmHg 95%
08:00 -1°C° 0.1 mm 2 m/s 724 mmHg 93%
09:00 -1°C° 0.1 mm 2 m/s 724 mmHg 91%
10:00 +1°C° 0.1 mm 2 m/s 725 mmHg 89%
11:00 +1°C° 0 mm 2 m/s 724 mmHg 85%
12:00 +3°C° 0 mm 1 m/s 724 mmHg 80%
13:00 +4°C° 0 mm 1 m/s 724 mmHg 76%
14:00 +4°C° 0 mm 1 m/s 723 mmHg 78%
15:00 +3°C° 0 mm 1 m/s 723 mmHg 81%
16:00 +3°C° 0 mm 1 m/s 722 mmHg 84%
17:00 +3°C° 0.1 mm 1 m/s 723 mmHg 86%
18:00 +2°C° 0.1 mm 1 m/s 723 mmHg 89%
19:00 -1°C° 0.1 mm 2 m/s 723 mmHg 92%
20:00 -1°C° 0.3 mm 2 m/s 723 mmHg 93%
21:00 -1°C° 0.3 mm 2 m/s 723 mmHg 93%
22:00 -1°C° 0.3 mm 3 m/s 723 mmHg 94%
23:00 -1°C° 0.9 mm 3 m/s 723 mmHg 94%

Mâine, 25 Ianuarie, Luni

Timp Temperatura Precipitaţii Vânt Presiune Umiditate
00:00 -1°C° 0.9 mm 3 m/s 724 mmHg 95%
01:00 -1°C° 0.9 mm 3 m/s 724 mmHg 96%
02:00 -1°C° 0.5 mm 3 m/s 725 mmHg 95%
03:00 -2°C° 0.5 mm 3 m/s 725 mmHg 95%
04:00 -3°C° 0.5 mm 4 m/s 726 mmHg 94%
05:00 -3°C° 0.2 mm 4 m/s 726 mmHg 93%
06:00 -4°C° 0.2 mm 5 m/s 727 mmHg 93%
07:00 -4°C° 0.2 mm 5 m/s 728 mmHg 92%
08:00 -4°C° 0.2 mm 5 m/s 729 mmHg 91%
09:00 -4°C° 0.2 mm 5 m/s 730 mmHg 91%
10:00 -4°C° 0.2 mm 5 m/s 731 mmHg 90%
11:00 -2°C° 0.1 mm 5 m/s 731 mmHg 87%
12:00 -2°C° 0.1 mm 5 m/s 731 mmHg 84%
13:00 -1°C° 0.1 mm 5 m/s 732 mmHg 82%
14:00 -1°C° 0.3 mm 5 m/s 732 mmHg 84%
15:00 -1°C° 0.3 mm 5 m/s 732 mmHg 87%
16:00 -1°C° 0.3 mm 5 m/s 732 mmHg 90%
17:00 -1°C° 0.2 mm 5 m/s 732 mmHg 91%
18:00 -2°C° 0.2 mm 5 m/s 732 mmHg 92%
19:00 -2°C° 0.2 mm 5 m/s 733 mmHg 92%
20:00 -2°C° 0.3 mm 5 m/s 733 mmHg 93%
21:00 -2°C° 0.3 mm 5 m/s 734 mmHg 94%
22:00 -2°C° 0.3 mm 5 m/s 734 mmHg 94%
23:00 -2°C° 0.2 mm 4 m/s 734 mmHg 95%

Poimâine, 26 Ianuarie, Marţi

Timp Temperatura Precipitaţii Vânt Presiune Umiditate
00:00 -2°C° 0.2 mm 4 m/s 735 mmHg 95%
01:00 -1°C° 0.2 mm 3 m/s 735 mmHg 95%
02:00 -1°C° 0.1 mm 3 m/s 735 mmHg 95%
03:00 -1°C° 0.1 mm 3 m/s 735 mmHg 94%
04:00 -1°C° 0.1 mm 2 m/s 735 mmHg 94%
05:00 -1°C° 0.2 mm 2 m/s 735 mmHg 95%
06:00 -1°C° 0.2 mm 2 m/s 736 mmHg 96%
07:00 -1°C° 0.2 mm 2 m/s 736 mmHg 97%
08:00 -1°C° 0.2 mm 2 m/s 736 mmHg 95%
09:00 +1°C° 0.2 mm 2 m/s 737 mmHg 94%
10:00 0°C° 0.2 mm 3 m/s 737 mmHg 92%
11:00 0°C° 0 mm 3 m/s 737 mmHg 92%
12:00 +1°C° 0 mm 3 m/s 737 mmHg 91%
13:00 +1°C° 0 mm 3 m/s 737 mmHg 91%
14:00 +2°C° 0 mm 2 m/s 736 mmHg 91%
15:00 +2°C° 0 mm 2 m/s 736 mmHg 92%
16:00 +2°C° 0 mm 2 m/s 736 mmHg 93%
17:00 +2°C° 0 mm 2 m/s 736 mmHg 93%
18:00 +2°C° 0 mm 1 m/s 736 mmHg 94%
19:00 +2°C° 0 mm 1 m/s 736 mmHg 94%
20:00 +2°C° 0.4 mm 1 m/s 735 mmHg 95%
21:00 +1°C° 0.4 mm 2 m/s 735 mmHg 96%
22:00 +1°C° 0.4 mm 2 m/s 735 mmHg 97%
23:00 +1°C° 0.3 mm 2 m/s 735 mmHg 97%

27 Ianuarie, Miercuri

Timp Temperatura Precipitaţii Vânt Presiune Umiditate
00:00 0°C° 0.3 mm 3 m/s 734 mmHg 97%
01:00 0°C° 0.3 mm 3 m/s 734 mmHg 97%
02:00 +1°C° 0.1 mm 3 m/s 733 mmHg 97%
03:00 +2°C° 0.1 mm 3 m/s 733 mmHg 97%
04:00 +1°C° 0.1 mm 4 m/s 732 mmHg 97%
05:00 +1°C° 0.1 mm 4 m/s 733 mmHg 97%
06:00 +3°C° 0.1 mm 4 m/s 733 mmHg 97%
07:00 +3°C° 0.1 mm 4 m/s 733 mmHg 97%
08:00 +3°C° 0.1 mm 4 m/s 734 mmHg 97%
09:00 +3°C° 0.1 mm 4 m/s 735 mmHg 97%
10:00 +3°C° 0.1 mm 4 m/s 735 mmHg 97%
11:00 +4°C° 0 mm 4 m/s 736 mmHg 96%
12:00 +4°C° 0 mm 4 m/s 736 mmHg 95%
13:00 +4°C° 0 mm 4 m/s 737 mmHg 94%
14:00 +4°C° 0.1 mm 4 m/s 737 mmHg 93%
15:00 +4°C° 0.1 mm 3 m/s 737 mmHg 93%
16:00 +4°C° 0.1 mm 3 m/s 737 mmHg 93%
17:00 +4°C° 0 mm 3 m/s 738 mmHg 93%
18:00 +4°C° 0 mm 2 m/s 738 mmHg 93%
19:00 +4°C° 0 mm 2 m/s 739 mmHg 92%
20:00 +4°C° 0 mm 2 m/s 739 mmHg 92%
21:00 +3°C° 0 mm 2 m/s 738 mmHg 91%
22:00 +3°C° 0 mm 2 m/s 738 mmHg 91%
23:00 +3°C° 0 mm 2 m/s 738 mmHg 91%

28 Ianuarie, Joi

Timp Temperatura Precipitaţii Vânt Presiune Umiditate
00:00 +2°C° 0 mm 2 m/s 737 mmHg 90%
01:00 +3°C° 0 mm 1 m/s 737 mmHg 90%
02:00 +2°C° 0 mm 2 m/s 736 mmHg 89%
03:00 +3°C° 0 mm 2 m/s 736 mmHg 88%
04:00 +3°C° 0 mm 2 m/s 735 mmHg 87%
05:00 +3°C° 0.6 mm 2 m/s 735 mmHg 89%
06:00 +3°C° 0.6 mm 2 m/s 734 mmHg 92%
07:00 +4°C° 0.6 mm 2 m/s 734 mmHg 94%
08:00 +4°C° 0.1 mm 2 m/s 734 mmHg 93%
09:00 +4°C° 0.1 mm 3 m/s 734 mmHg 93%
10:00 +4°C° 0.1 mm 3 m/s 734 mmHg 92%
11:00 +6°C° 0 mm 4 m/s 734 mmHg 90%
12:00 +7°C° 0 mm 4 m/s 733 mmHg 87%
13:00 +8°C° 0 mm 5 m/s 733 mmHg 85%
14:00 +7°C° 0.8 mm 5 m/s 733 mmHg 86%
15:00 +7°C° 0.8 mm 5 m/s 732 mmHg 88%
16:00 +6°C° 0.8 mm 5 m/s 732 mmHg 90%
17:00 +6°C° 1 mm 5 m/s 732 mmHg 91%
18:00 +6°C° 1 mm 5 m/s 733 mmHg 92%
19:00 +6°C° 1 mm 4 m/s 734 mmHg 92%

29 Ianuarie, Vineri

Timp Temperatura Precipitaţii Vânt Presiune Umiditate
Arată mai mult

Formular de consimțământ

Meteoprog și furnizorii noștri de servicii pot stoca și accesa date personale, precum cookies, identificatori de dispozitiv sau alte tehnologii similare pe dispozitivul dumneavoastră și procesa astfel de date pentru a personaliza conținutul și reclamele, dar și pentru a oferi caracteristici de social media și pentru a analiza traficul.

  • Stocarea și/sau accesarea informațiilor pe dispozitivul dumneavoastră

    Cookies, identificatori de dispozitiv sau alte informații pot fi stocate sau accesate pe dispozitiv în scopurile indicate mai sus.

  • Reclame și conținut personalizat, evaluarea reclamelor și a conținutului, informații despre audiențe și dezvoltarea produselor

    Reclamele și conținutul pot fi personalizate pe baza unui profil. Pot fi adăugate date suplimentare pentru a personaliza mai bine reclamele și conținutul. Performanța reclamelor și conținutului poate fi măsurată. Pot fi obținute informații despre utilizatorii care au văzut reclamele și conținutul. Aceste date pot fi utilizate pentru a dezvolta sau îmbunătăți experiența utilizatorilor, sistemele și software-ul.

Dând clic pe ‘Sunt de acord’, permiteți utilizarea cookie-urilor menționate, a identificatorilor de dispozitiv, balizelor web sau altor tehnologii similare. Setările pot fi modificate din browser-ul dispozitivului dumneavoastră.

În anumite scopuri, interesele legitime pot prima asupra consimțământului. Puteți citi mai multe informații în acest sens în Politica privind Confidențialitatea Datelor și Cookie.